Flag for Germany Weather past 2 weeks in Neuwied, Rhineland-Palatinate, Germany

Now
75 °F

Mild.


Feels Like: 77 °F
Forecast: 58 / 90 °F
Wind: 5 mph from South

Location: Buechel

Current Time: Aug 2, 2015 at 3:12:22 PM

Latest Report: Aug 2, 2015 at 2:20 PM


Visibility: N/A

Pressure: 30.15 "Hg

Humidity: 34%

Dew point: 45 °F

Location of NeuwiedLocation

Historic Weather in Neuwied — Graph

°F

Neuwied temperature yesterday

Maximum temperature yesterday: 75 °F (at 4:20 PM)
Minimum temperature yesterday: 52 °F (at 7:20 AM)
Average temperature yesterday: 63 °F

Past Weeks' High & Low Weather Summary

 TemperatureHumidityPressure
High82 °F (Jul 21, 5:20 PM)100% (Jul 19, 6:20 AM)30.15 "Hg (Jul 19, 6:20 AM)
Low45 °F (Jul 30, 3:20 AM)29% (Aug 1, 4:20 PM)29.62 "Hg (Jul 27, 4:20 AM)
Average61 °F71%29.93 "Hg
* Reported Jul 18 1:20 PM — Aug 2 1:20 PM, Neuwied, Weather by CustomWeather, © 2015

Note: Actual official high and low records may vary slightly from our data, if they occured in-between our weather recording intervals... More about our weather records

Advertising

Neuwied weather history for previous 24 hours

 ConditionsComfort  
Time TempWeatherWind HumidityBarometerVisibility
1:20 PM
Sun, Aug 2
73 °FMild.6 mph38%30.15 "HgN/A
12:20 PM72 °FMild.6 mph41%30.15 "HgN/A
11:20 AM70 °FMild.8 mph43%30.15 "HgN/A
10:20 AM68 °FMild.9 mph46%30.15 "HgN/A
9:20 AM66 °FMild.7 mph49%30.15 "HgN/A
8:20 AM63 °FMild.6 mph59%30.12 "HgN/A
7:20 AM57 °FCool.5 mph67%30.12 "HgN/A
6:20 AM55 °FCool.5 mph72%30.12 "HgN/A
5:20 AM55 °FCool.5 mph72%30.12 "HgN/A
4:20 AM57 °FCool.6 mph67%30.09 "HgN/A
3:20 AM57 °FCool.5 mph67%30.09 "HgN/A
2:20 AM59 °FRefreshingly cool.8 mph59%30.09 "HgN/A
1:20 AM61 °FRefreshingly cool.8 mph55%30.09 "HgN/A
12:20 AM63 °FMild.8 mph52%30.07 "HgN/A
11:20 PM
Sat, Aug 1
63 °FMild.9 mph52%30.07 "HgN/A
10:20 PM64 °FMild.8 mph49%30.07 "HgN/A
9:20 PM66 °FMild.7 mph46%30.04 "HgN/A
8:20 PM68 °FMild.8 mph46%30.01 "HgN/A
7:20 PM72 °FMild.7 mph41%30.01 "HgN/A
6:20 PM73 °FMild.8 mph36%29.98 "HgN/A
5:20 PM73 °FMild.5 mph31%29.98 "HgN/A
4:20 PM75 °FMild.3 mph29%29.98 "HgN/A
3:20 PM73 °FMild.5 mph36%29.98 "HgN/A
Weather by CustomWeather, © 2015

See weather overviewHow to use our weather pages